This is the latest recevied weather packets stored in our database for station/object KF6RAL-6. If no packets are shown the sender has not sent any weather packets the latest 10 day(s).
| Time | Temp. | Humidity | Pressure | Rain* | Wind** | Luminosity | Snow |
|---|---|---|---|---|---|---|---|
| 1788062723 | 20.56° C | 71% | 1012.9 hPa | 0 mm | - | - | - |
| 1788061456 | 20° C | 72% | 1013.8 hPa | 0 mm | - | - | - |
| 1788061035 | 20.56° C | 71% | 1013.5 hPa | 0 mm | - | - | - |
| 1788060614 | 21.11° C | 69% | 1012.9 hPa | 0 mm | - | - | - |
| 1788060193 | 21.11° C | 68% | 1012.6 hPa | 0 mm | - | - | - |
| 1788059772 | 21.11° C | 69% | 1012.5 hPa | 0 mm | - | - | - |
| 1788059351 | 21.11° C | 71% | 1011.9 hPa | 0 mm | - | - | - |
| 1788058930 | 20.56° C | 72% | 1012.1 hPa | 0 mm | - | - | - |
| 1788058509 | 20.56° C | 74% | 1011.8 hPa | 0 mm | - | - | - |
| 1788058089 | 20.56° C | 74% | 1011.8 hPa | 0 mm | - | - | - |
| 1788057667 | 20.56° C | 74% | 1011.8 hPa | 0 mm | - | - | - |
| 1788057246 | 20.56° C | 73% | 1012 hPa | 0 mm | - | - | - |
| 1788056825 | 21.11° C | 74% | 1011.9 hPa | 0 mm | - | - | - |
| 1788056404 | 21.11° C | 73% | 1011.9 hPa | 0 mm | - | - | - |
| 1788055983 | 20.56° C | 73% | 1012.1 hPa | 0 mm | - | - | - |
| 1788055562 | 20.56° C | 73% | 1012 hPa | 0 mm | - | - | - |
| 1788054721 | 21.11° C | 73% | 1012.9 hPa | 0 mm | - | - | - |
| 1788054299 | 21.11° C | 72% | 1012.5 hPa | 0 mm | - | - | - |
| 1788053878 | 21.67° C | 71% | 1012.8 hPa | 0 mm | - | - | - |
| 1788053457 | 22.22° C | 69% | 1013.9 hPa | 0 mm | - | - | - |
| 1788053036 | 22.22° C | 68% | 1013.3 hPa | 0 mm | - | - | - |
| 1788052615 | 22.22° C | 68% | 1013.8 hPa | 0 mm | - | - | - |
| 1788052194 | 22.22° C | 66% | 1014 hPa | 0 mm | - | - | - |
| 1788051773 | 22.22° C | 68% | 1014.3 hPa | 0 mm | - | - | - |
| 1788051352 | 22.22° C | 68% | 1014.5 hPa | 0 mm | - | - | - |
* Rain latest hour (hover to see other rain measurements)
** Current wind speed in m/s (hover to see current wind gust speed)